,,PressureMeas_1m,,PRMeasQMR101_1,,RHStat155_1m_1,,SRMeasQMS101R_1m,,TAStat155_1m_1,,GenWind_1,,GenWind_1,
2019-07-03, 00:00:06,VALID,918.74,VALID,0.0,VALID,97.914,VALID,0.027,VALID,19.046,VALID,50.0,VALID,0.0,
2019-07-03, 00:01:06,VALID,918.706,VALID,0.0,VALID,98.025,VALID,0.029,VALID,19.057,VALID,37.0,VALID,0.0,
2019-07-03, 00:02:06,VALID,918.691,VALID,0.0,VALID,97.886,VALID,0.036,VALID,19.012,VALID,37.0,VALID,0.0,
2019-07-03, 00:03:06,VALID,918.69,VALID,0.0,VALID,97.817,VALID,0.035,VALID,19.008,VALID,37.0,VALID,0.0,
2019-07-03, 00:04:06,VALID,918.681,VALID,0.0,VALID,97.69,VALID,0.04,VALID,18.995,VALID,37.0,VALID,0.0,
2019-07-03, 00:05:06,VALID,918.678,VALID,0.0,VALID,97.887,VALID,0.032,VALID,19.041,INVALID,360.0,VALID,0.0,
2019-07-03, 00:06:06,VALID,918.683,VALID,0.0,VALID,97.934,VALID,0.035,VALID,19.04,VALID,37.0,VALID,0.0,
2019-07-03, 00:07:06,VALID,918.68,VALID,0.0,VALID,97.881,VALID,0.044,VALID,19.035,VALID,37.0,VALID,0.0,
2019-07-03, 00:08:06,VALID,918.636,VALID,0.0,VALID,97.921,VALID,0.038,VALID,19.104,VALID,37.0,VALID,0.0,
2019-07-03, 00:09:06,VALID,918.625,VALID,0.0,VALID,97.755,VALID,0.047,VALID,19.099,INVALID,360.0,VALID,0.0,
2019-07-03, 00:10:06,VALID,918.613,VALID,0.0,VALID,97.202,VALID,0.051,VALID,18.985,VALID,84.0,VALID,0.0,
2019-07-03, 00:11:06,VALID,918.612,VALID,0.0,VALID,96.798,VALID,0.038,VALID,18.867,VALID,123.0,VALID,0.0,
2019-07-03, 00:12:06,VALID,918.598,VALID,0.0,VALID,96.461,VALID,0.036,VALID,18.806,VALID,131.0,VALID,0.0,
2019-07-03, 00:13:06,VALID,918.622,VALID,0.0,VALID,96.326,VALID,0.031,VALID,18.811,VALID,131.0,VALID,0.0,
2019-07-03, 00:14:06,VALID,918.61,VALID,0.0,VALID,96.463,VALID,0.04,VALID,18.847,VALID,132.0,VALID,0.0,
2019-07-03, 00:15:06,VALID,918.599,VALID,0.0,VALID,96.209,VALID,0.052,VALID,18.838,VALID,132.0,VALID,0.0,
2019-07-03, 00:16:06,VALID,918.569,VALID,0.0,VALID,96.586,VALID,0.038,VALID,18.889,VALID,132.0,VALID,0.0,
2019-07-03, 00:17:06,VALID,918.528,VALID,0.0,VALID,96.799,VALID,0.001,VALID,18.926,VALID,132.0,VALID,0.0,
2019-07-03, 00:18:06,VALID,918.497,VALID,0.0,VALID,96.966,VALID,-0.001,VALID,18.957,VALID,132.0,VALID,0.0,
2019-07-03, 00:19:06,VALID,918.458,VALID,0.0,VALID,97.028,VALID,-0.001,VALID,19.005,VALID,132.0,VALID,0.0,
2019-07-03, 00:20:06,VALID,918.439,VALID,0.0,VALID,97.615,VALID,-0.016,VALID,19.145,VALID,132.0,VALID,0.0,
2019-07-03, 00:21:06,VALID,918.427,VALID,0.0,VALID,97.516,VALID,0.007,VALID,19.163,VALID,132.0,VALID,0.0,
2019-07-03, 00:22:06,VALID,918.41,VALID,0.0,VALID,97.242,VALID,0.009,VALID,19.123,VALID,132.0,VALID,0.0,
2019-07-03, 00:23:06,VALID,918.422,VALID,0.0,VALID,96.387,VALID,0.011,VALID,18.964,VALID,114.0,VALID,0.0,
2019-07-03, 00:24:06,VALID,918.445,VALID,0.0,VALID,95.681,VALID,0.004,VALID,18.844,VALID,93.0,VALID,0.0,
2019-07-03, 00:25:06,VALID,918.456,VALID,0.0,VALID,95.964,VALID,-0.004,VALID,18.803,VALID,93.0,VALID,0.0,
2019-07-03, 00:26:06,VALID,918.445,VALID,0.0,VALID,96.097,VALID,-0.004,VALID,18.766,VALID,95.0,VALID,0.0,
2019-07-03, 00:27:06,VALID,918.457,VALID,0.0,VALID,96.869,VALID,-0.003,VALID,18.815,VALID,94.0,VALID,0.0,
2019-07-03, 00:28:06,VALID,918.476,VALID,0.0,VALID,97.507,VALID,0.001,VALID,18.886,VALID,94.0,VALID,0.0,
2019-07-03, 00:29:06,VALID,918.479,VALID,0.0,VALID,97.875,VALID,0.007,VALID,18.915,VALID,96.0,VALID,0.0,
2019-07-03, 00:30:06,VALID,918.49,VALID,0.0,VALID,98.143,VALID,0.008,VALID,18.952,VALID,83.0,VALID,0.0,
2019-07-03, 00:31:06,VALID,918.474,VALID,0.0,VALID,98.118,VALID,0.0,VALID,18.923,VALID,80.0,VALID,0.0,
2019-07-03, 00:32:06,VALID,918.47,VALID,0.0,VALID,98.211,VALID,0.007,VALID,18.973,VALID,91.0,VALID,0.0,
2019-07-03, 00:33:06,VALID,918.476,VALID,0.0,VALID,98.267,VALID,-0.02,VALID,18.995,VALID,93.0,VALID,0.0,
2019-07-03, 00:34:06,VALID,918.458,VALID,0.0,VALID,98.041,VALID,-0.024,VALID,18.922,VALID,90.0,VALID,0.0,
2019-07-03, 00:35:06,VALID,918.457,VALID,0.0,VALID,97.596,VALID,-0.034,VALID,18.837,VALID,100.0,VALID,0.0,
2019-07-03, 00:36:06,VALID,918.454,VALID,0.0,VALID,97.657,VALID,-0.033,VALID,18.847,VALID,108.0,VALID,0.0,
2019-07-03, 00:37:06,VALID,918.462,VALID,0.0,VALID,97.723,VALID,-0.023,VALID,18.82,VALID,106.0,VALID,0.0,
2019-07-03, 00:38:06,VALID,918.456,VALID,0.0,VALID,97.945,VALID,-0.03,VALID,18.827,VALID,108.0,VALID,0.0,
2019-07-03, 00:39:06,VALID,918.474,VALID,0.0,VALID,98.105,VALID,-0.037,VALID,18.833,VALID,124.0,VALID,0.0,
2019-07-03, 00:40:06,VALID,918.478,VALID,0.0,VALID,98.305,VALID,-0.049,VALID,18.876,VALID,122.0,VALID,0.0,
2019-07-03, 00:41:06,VALID,918.488,VALID,0.0,VALID,98.43,VALID,-0.046,VALID,18.901,VALID,123.0,VALID,0.0,
2019-07-03, 00:42:06,VALID,918.466,VALID,0.0,VALID,98.432,VALID,-0.026,VALID,18.885,VALID,130.0,VALID,0.0,
2019-07-03, 00:43:06,VALID,918.433,VALID,0.0,VALID,98.549,VALID,-0.024,VALID,18.918,VALID,124.0,VALID,0.0,
2019-07-03, 00:44:06,VALID,918.422,VALID,0.0,VALID,98.465,VALID,-0.019,VALID,18.897,VALID,125.0,VALID,0.0,
2019-07-03, 00:45:06,VALID,918.408,VALID,0.0,VALID,98.483,VALID,-0.036,VALID,18.883,VALID,127.0,VALID,0.0,
2019-07-03, 00:46:06,VALID,918.392,VALID,0.0,VALID,98.556,VALID,-0.034,VALID,18.896,VALID,127.0,VALID,0.0,
2019-07-03, 00:47:06,VALID,918.378,VALID,0.0,VALID,98.582,VALID,-0.03,VALID,18.892,VALID,128.0,VALID,0.0,
2019-07-03, 00:48:06,VALID,918.367,VALID,0.0,VALID,98.636,VALID,-0.014,VALID,18.903,VALID,127.0,VALID,0.0,
2019-07-03, 00:49:06,VALID,918.355,VALID,0.0,VALID,98.656,VALID,-0.021,VALID,18.914,VALID,127.0,VALID,0.0,
2019-07-03, 00:50:06,VALID,918.334,VALID,0.0,VALID,98.64,VALID,-0.02,VALID,18.922,VALID,127.0,VALID,0.0,
2019-07-03, 00:51:06,VALID,918.337,VALID,0.0,VALID,98.631,VALID,-0.012,VALID,18.939,VALID,127.0,VALID,0.0,
2019-07-03, 00:52:06,VALID,918.318,VALID,0.0,VALID,98.598,VALID,-0.009,VALID,18.942,VALID,127.0,VALID,0.0,
2019-07-03, 00:53:06,VALID,918.335,VALID,0.0,VALID,98.583,VALID,-0.02,VALID,18.974,VALID,127.0,VALID,0.0,
2019-07-03, 00:54:06,VALID,918.307,VALID,0.0,VALID,98.611,VALID,0.003,VALID,19.041,VALID,127.0,VALID,0.0,
2019-07-03, 00:55:06,VALID,918.313,VALID,0.0,VALID,98.604,VALID,-0.008,VALID,19.114,VALID,127.0,VALID,0.0,
2019-07-03, 00:56:06,VALID,918.28,VALID,0.0,VALID,98.418,VALID,-0.014,VALID,19.092,VALID,127.0,VALID,0.0,
2019-07-03, 00:57:06,VALID,918.295,VALID,0.0,VALID,97.956,VALID,-0.003,VALID,18.988,VALID,127.0,VALID,0.0,
2019-07-03, 00:58:06,VALID,918.284,VALID,0.0,VALID,97.927,VALID,-0.001,VALID,19.03,VALID,127.0,VALID,0.0,
2019-07-03, 00:59:06,VALID,918.289,VALID,0.0,VALID,97.86,VALID,0.004,VALID,19.001,VALID,125.0,VALID,0.0,
2019-07-03, 01:00:06,VALID,918.301,VALID,0.0,VALID,97.852,VALID,0.01,VALID,18.953,VALID,114.0,VALID,0.0,
2019-07-03, 01:01:06,VALID,918.313,VALID,0.0,VALID,97.592,VALID,-0.011,VALID,18.823,VALID,110.0,VALID,0.0,
2019-07-03, 01:02:06,VALID,918.327,VALID,0.0,VALID,97.137,VALID,-0.013,VALID,18.676,VALID,106.0,VALID,0.0,
2019-07-03, 01:03:06,VALID,918.325,VALID,0.0,VALID,96.809,VALID,0.001,VALID,18.58,VALID,98.0,VALID,0.0,
2019-07-03, 01:04:06,VALID,918.323,VALID,0.0,VALID,97.326,VALID,-0.005,VALID,18.697,VALID,93.0,VALID,0.0,
2019-07-03, 01:05:06,VALID,918.31,VALID,0.0,VALID,97.875,VALID,-0.005,VALID,18.763,VALID,101.0,VALID,0.0,
2019-07-03, 01:06:06,VALID,918.297,VALID,0.0,VALID,98.084,VALID,-0.007,VALID,18.803,VALID,113.0,VALID,0.0,
2019-07-03, 01:07:06,VALID,918.275,VALID,0.0,VALID,98.149,VALID,-0.007,VALID,18.747,INVALID,360.0,VALID,0.0,
2019-07-03, 01:08:06,VALID,918.27,VALID,0.0,VALID,98.169,VALID,-0.012,VALID,18.691,VALID,113.0,VALID,0.0,
2019-07-03, 01:09:06,VALID,918.259,VALID,0.0,VALID,98.325,VALID,-0.006,VALID,18.695,VALID,119.0,VALID,0.0,
2019-07-03, 01:10:06,VALID,918.246,VALID,0.0,VALID,98.481,VALID,-0.001,VALID,18.71,VALID,120.0,VALID,0.0,
2019-07-03, 01:11:06,VALID,918.229,VALID,0.0,VALID,98.605,VALID,-0.003,VALID,18.741,VALID,115.0,VALID,0.0,
2019-07-03, 01:12:06,VALID,918.219,VALID,0.0,VALID,98.631,VALID,-0.004,VALID,18.738,VALID,115.0,VALID,0.0,
2019-07-03, 01:13:06,VALID,918.188,VALID,0.0,VALID,98.537,VALID,-0.003,VALID,18.663,VALID,115.0,VALID,0.0,
2019-07-03, 01:14:06,VALID,918.177,VALID,0.0,VALID,98.52,VALID,-0.005,VALID,18.671,VALID,115.0,VALID,0.0,
2019-07-03, 01:15:06,VALID,918.155,VALID,0.0,VALID,98.527,VALID,0.001,VALID,18.669,VALID,115.0,VALID,0.0,
2019-07-03, 01:16:06,VALID,918.158,VALID,0.0,VALID,98.531,VALID,-0.006,VALID,18.677,VALID,115.0,VALID,0.0,
2019-07-03, 01:17:06,VALID,918.138,VALID,0.0,VALID,98.547,VALID,0.004,VALID,18.684,VALID,115.0,VALID,0.0,
2019-07-03, 01:18:06,VALID,918.137,VALID,0.0,VALID,98.529,VALID,0.016,VALID,18.677,VALID,115.0,VALID,0.0,
2019-07-03, 01:19:06,VALID,918.132,VALID,0.0,VALID,98.436,VALID,0.006,VALID,18.655,VALID,116.0,VALID,0.0,
2019-07-03, 01:20:06,VALID,918.12,VALID,0.0,VALID,98.393,VALID,-0.008,VALID,18.663,VALID,116.0,VALID,0.0,
2019-07-03, 01:21:06,VALID,918.134,VALID,0.0,VALID,98.303,VALID,-0.005,VALID,18.667,VALID,116.0,VALID,0.0,
2019-07-03, 01:22:06,VALID,918.113,VALID,0.0,VALID,98.259,VALID,0.006,VALID,18.67,INVALID,360.0,VALID,0.0,
2019-07-03, 01:23:06,VALID,918.115,VALID,0.0,VALID,98.195,VALID,0.012,VALID,18.665,INVALID,360.0,VALID,0.0,
2019-07-03, 01:24:06,VALID,918.115,VALID,0.0,VALID,98.108,VALID,0.003,VALID,18.66,VALID,129.0,VALID,0.0,
2019-07-03, 01:25:06,VALID,918.104,VALID,0.0,VALID,98.011,VALID,0.009,VALID,18.659,VALID,129.0,VALID,0.0,
2019-07-03, 01:26:06,VALID,918.097,VALID,0.0,VALID,97.906,VALID,-0.002,VALID,18.634,VALID,128.0,VALID,0.0,
2019-07-03, 01:27:06,VALID,918.077,VALID,0.0,VALID,97.683,VALID,-0.011,VALID,18.587,VALID,128.0,VALID,0.0,
2019-07-03, 01:28:06,VALID,918.05,VALID,0.0,VALID,97.825,VALID,-0.005,VALID,18.636,VALID,126.0,VALID,0.0,
2019-07-03, 01:29:06,VALID,918.032,VALID,0.0,VALID,97.962,VALID,-0.015,VALID,18.662,VALID,127.0,VALID,0.0,
2019-07-03, 01:30:06,VALID,918.029,VALID,0.0,VALID,97.981,VALID,-0.024,VALID,18.661,VALID,130.0,VALID,0.0,
2019-07-03, 01:31:06,VALID,918.034,VALID,0.0,VALID,97.987,VALID,0.009,VALID,18.663,VALID,128.0,VALID,0.0,
2019-07-03, 01:32:06,VALID,918.034,VALID,0.0,VALID,97.965,VALID,0.006,VALID,18.676,VALID,128.0,VALID,0.0,
2019-07-03, 01:33:06,VALID,918.066,VALID,0.0,VALID,97.959,VALID,0.015,VALID,18.658,INVALID,360.0,VALID,0.0,
2019-07-03, 01:34:06,VALID,918.06,VALID,0.0,VALID,97.794,VALID,0.007,VALID,18.589,INVALID,360.0,VALID,0.0,
2019-07-03, 01:35:06,VALID,918.047,VALID,0.0,VALID,97.598,VALID,0.004,VALID,18.531,INVALID,360.0,VALID,0.0,
2019-07-03, 01:36:06,VALID,918.036,VALID,0.0,VALID,97.255,VALID,0.021,VALID,18.448,INVALID,360.0,VALID,0.0,
2019-07-03, 01:37:06,VALID,918.02,VALID,0.0,VALID,96.829,VALID,0.014,VALID,18.411,INVALID,360.0,VALID,0.0,
2019-07-03, 01:38:06,VALID,917.993,VALID,0.0,VALID,96.756,VALID,0.005,VALID,18.414,INVALID,360.0,VALID,0.0,
2019-07-03, 01:39:06,VALID,917.969,VALID,0.0,VALID,96.943,VALID,0.017,VALID,18.452,INVALID,360.0,VALID,0.0,
2019-07-03, 01:40:06,VALID,917.935,VALID,0.0,VALID,97.221,VALID,0.015,VALID,18.525,INVALID,360.0,VALID,0.0,
2019-07-03, 01:41:06,VALID,917.901,VALID,0.0,VALID,97.277,VALID,-0.006,VALID,18.565,INVALID,360.0,VALID,0.0,
2019-07-03, 01:42:06,VALID,917.867,VALID,0.0,VALID,97.044,VALID,0.009,VALID,18.582,INVALID,360.0,VALID,0.0,
2019-07-03, 01:43:06,VALID,917.849,VALID,0.0,VALID,97.026,VALID,0.008,VALID,18.624,INVALID,360.0,VALID,0.0,
2019-07-03, 01:44:06,VALID,917.841,VALID,0.0,VALID,97.247,VALID,0.004,VALID,18.692,INVALID,360.0,VALID,0.0,
2019-07-03, 01:45:06,VALID,917.832,VALID,0.0,VALID,97.222,VALID,0.013,VALID,18.7,INVALID,360.0,VALID,0.0,
2019-07-03, 01:46:06,VALID,917.825,VALID,0.0,VALID,96.406,VALID,-0.002,VALID,18.59,INVALID,360.0,VALID,0.0,
2019-07-03, 01:47:06,VALID,917.824,VALID,0.0,VALID,96.179,VALID,0.022,VALID,18.584,INVALID,360.0,VALID,0.0,
2019-07-03, 01:48:06,VALID,917.82,VALID,0.0,VALID,96.309,VALID,0.015,VALID,18.587,INVALID,360.0,VALID,0.0,
2019-07-03, 01:49:06,VALID,917.825,VALID,0.0,VALID,96.623,VALID,-0.006,VALID,18.608,INVALID,360.0,VALID,0.0,
2019-07-03, 01:50:06,VALID,917.822,VALID,0.0,VALID,96.448,VALID,0.011,VALID,18.603,INVALID,360.0,VALID,0.0,
2019-07-03, 01:51:06,VALID,917.804,VALID,0.0,VALID,96.563,VALID,0.006,VALID,18.626,INVALID,360.0,VALID,0.0,
2019-07-03, 01:52:06,VALID,917.795,VALID,0.0,VALID,95.641,VALID,0.025,VALID,18.538,INVALID,360.0,VALID,0.0,
2019-07-03, 01:53:06,VALID,917.796,VALID,0.0,VALID,96.064,VALID,0.02,VALID,18.536,INVALID,360.0,VALID,0.0,
2019-07-03, 01:54:06,VALID,917.786,VALID,0.0,VALID,96.518,VALID,0.018,VALID,18.503,INVALID,360.0,VALID,0.0,
2019-07-03, 01:55:06,VALID,917.805,VALID,0.0,VALID,96.25,VALID,0.025,VALID,18.396,VALID,70.0,VALID,0.0,
2019-07-03, 01:56:06,VALID,917.803,VALID,0.0,VALID,96.553,VALID,0.034,VALID,18.382,VALID,69.0,VALID,0.0,
2019-07-03, 01:57:06,VALID,917.816,VALID,0.0,VALID,97.014,VALID,0.028,VALID,18.392,VALID,69.0,VALID,0.0,
2019-07-03, 01:58:06,VALID,917.832,VALID,0.0,VALID,97.324,VALID,0.017,VALID,18.453,VALID,69.0,VALID,0.0,
2019-07-03, 01:59:06,VALID,917.835,VALID,0.0,VALID,97.528,VALID,0.019,VALID,18.444,VALID,69.0,VALID,0.0,
2019-07-03, 02:00:06,VALID,917.837,VALID,0.0,VALID,97.675,VALID,0.007,VALID,18.529,VALID,69.0,VALID,0.0,
2019-07-03, 02:01:06,VALID,917.842,VALID,0.0,VALID,98.432,VALID,-0.023,VALID,18.744,VALID,70.0,VALID,0.0,
2019-07-03, 02:02:06,VALID,917.834,VALID,0.0,VALID,97.825,VALID,0.014,VALID,18.526,INVALID,360.0,VALID,0.0,
2019-07-03, 02:03:06,VALID,917.83,VALID,0.0,VALID,97.024,VALID,0.031,VALID,18.399,VALID,106.0,VALID,0.0,
2019-07-03, 02:04:06,VALID,917.809,VALID,0.0,VALID,97.179,VALID,0.038,VALID,18.437,VALID,112.0,VALID,0.0,
2019-07-03, 02:05:06,VALID,917.797,VALID,0.0,VALID,97.912,VALID,0.039,VALID,18.53,VALID,113.0,VALID,0.0,
2019-07-03, 02:06:06,VALID,917.78,VALID,0.0,VALID,98.021,VALID,0.046,VALID,18.468,VALID,123.0,VALID,0.0,
2019-07-03, 02:07:06,VALID,917.773,VALID,0.0,VALID,98.113,VALID,0.053,VALID,18.425,VALID,124.0,VALID,0.0,
2019-07-03, 02:08:06,VALID,917.771,VALID,0.0,VALID,98.261,VALID,0.037,VALID,18.437,VALID,125.0,VALID,0.0,
2019-07-03, 02:09:06,VALID,917.75,VALID,0.0,VALID,98.328,VALID,0.038,VALID,18.442,VALID,127.0,VALID,0.0,
2019-07-03, 02:10:06,VALID,917.742,VALID,0.0,VALID,98.417,VALID,0.039,VALID,18.441,VALID,132.0,VALID,0.0,
2019-07-03, 02:11:06,VALID,917.719,VALID,0.0,VALID,98.492,VALID,0.059,VALID,18.446,VALID,120.0,VALID,0.0,
2019-07-03, 02:12:06,VALID,917.679,VALID,0.0,VALID,98.544,VALID,0.063,VALID,18.449,VALID,121.0,VALID,0.0,
2019-07-03, 02:13:06,VALID,917.665,VALID,0.0,VALID,98.599,VALID,0.044,VALID,18.464,VALID,121.0,VALID,0.0,
2019-07-03, 02:14:06,VALID,917.644,VALID,0.0,VALID,98.578,VALID,0.058,VALID,18.402,VALID,111.0,VALID,0.0,
2019-07-03, 02:15:06,VALID,917.624,VALID,0.0,VALID,98.458,VALID,0.048,VALID,18.347,VALID,100.0,VALID,0.0,
2019-07-03, 02:16:06,VALID,917.609,VALID,0.0,VALID,98.348,VALID,0.062,VALID,18.324,VALID,92.0,VALID,0.0,
2019-07-03, 02:17:06,VALID,917.602,VALID,0.0,VALID,98.27,VALID,0.033,VALID,18.329,INVALID,360.0,VALID,0.0,
2019-07-03, 02:18:06,VALID,917.583,VALID,0.0,VALID,98.221,VALID,-0.005,VALID,18.358,INVALID,360.0,VALID,0.0,
2019-07-03, 02:19:06,VALID,917.576,VALID,0.0,VALID,98.231,VALID,-0.017,VALID,18.399,INVALID,360.0,VALID,0.0,
2019-07-03, 02:20:06,VALID,917.572,VALID,0.0,VALID,98.375,VALID,-0.015,VALID,18.497,INVALID,360.0,VALID,0.0,
2019-07-03, 02:21:06,VALID,917.554,VALID,0.0,VALID,98.205,VALID,-0.015,VALID,18.487,VALID,128.0,VALID,0.0,
2019-07-03, 02:22:06,VALID,917.519,VALID,0.0,VALID,97.802,VALID,-0.027,VALID,18.445,VALID,132.0,VALID,0.0,
2019-07-03, 02:23:06,VALID,917.524,VALID,0.0,VALID,97.498,VALID,-0.02,VALID,18.434,VALID,127.0,VALID,0.0,
2019-07-03, 02:24:06,VALID,917.515,VALID,0.0,VALID,97.233,VALID,-0.02,VALID,18.421,INVALID,360.0,VALID,0.0,
2019-07-03, 02:25:06,VALID,917.531,VALID,0.0,VALID,97.236,VALID,-0.015,VALID,18.416,INVALID,360.0,VALID,0.0,
2019-07-03, 02:26:06,VALID,917.514,VALID,0.0,VALID,97.522,VALID,-0.016,VALID,18.458,INVALID,360.0,VALID,0.0,
2019-07-03, 02:27:06,VALID,917.507,VALID,0.0,VALID,97.683,VALID,-0.013,VALID,18.488,INVALID,360.0,VALID,0.0,
2019-07-03, 02:28:06,VALID,917.502,VALID,0.0,VALID,97.533,VALID,-0.017,VALID,18.457,INVALID,360.0,VALID,0.0,
2019-07-03, 02:29:06,VALID,917.5,VALID,0.0,VALID,97.385,VALID,-0.023,VALID,18.452,INVALID,360.0,VALID,0.0,
2019-07-03, 02:30:06,VALID,917.479,VALID,0.0,VALID,97.309,VALID,-0.006,VALID,18.436,INVALID,360.0,VALID,0.0,
2019-07-03, 02:31:06,VALID,917.445,VALID,0.0,VALID,97.158,VALID,-0.016,VALID,18.422,INVALID,360.0,VALID,0.0,
2019-07-03, 02:32:06,VALID,917.429,VALID,0.0,VALID,97.223,VALID,-0.014,VALID,18.444,INVALID,360.0,VALID,0.0,
2019-07-03, 02:33:06,VALID,917.418,VALID,0.0,VALID,97.391,VALID,-0.029,VALID,18.47,INVALID,360.0,VALID,0.0,
2019-07-03, 02:34:06,VALID,917.396,VALID,0.0,VALID,97.358,VALID,-0.038,VALID,18.424,INVALID,360.0,VALID,0.0,
2019-07-03, 02:35:06,VALID,917.377,VALID,0.0,VALID,97.092,VALID,-0.031,VALID,18.384,INVALID,360.0,VALID,0.0,
2019-07-03, 02:36:06,VALID,917.343,VALID,0.0,VALID,97.174,VALID,-0.046,VALID,18.395,INVALID,360.0,VALID,0.0,
2019-07-03, 02:37:06,VALID,917.333,VALID,0.0,VALID,97.603,VALID,-0.041,VALID,18.42,INVALID,360.0,VALID,0.0,
2019-07-03, 02:38:06,VALID,917.315,VALID,0.0,VALID,97.522,VALID,-0.033,VALID,18.372,INVALID,360.0,VALID,0.0,
2019-07-03, 02:39:06,VALID,917.301,VALID,0.0,VALID,97.758,VALID,-0.04,VALID,18.419,INVALID,360.0,VALID,0.0,
2019-07-03, 02:40:06,VALID,917.275,VALID,0.0,VALID,98.032,VALID,-0.033,VALID,18.445,INVALID,360.0,VALID,0.0,
2019-07-03, 02:41:06,VALID,917.283,VALID,0.0,VALID,97.892,VALID,-0.048,VALID,18.368,INVALID,360.0,VALID,0.0,
2019-07-03, 02:42:06,VALID,917.258,VALID,0.0,VALID,97.352,VALID,-0.029,VALID,18.219,INVALID,360.0,VALID,0.0,
2019-07-03, 02:43:06,VALID,917.254,VALID,0.0,VALID,97.011,VALID,-0.017,VALID,18.143,INVALID,360.0,VALID,0.0,
2019-07-03, 02:44:06,VALID,917.252,VALID,0.0,VALID,96.863,VALID,-0.043,VALID,18.087,INVALID,360.0,VALID,0.0,
2019-07-03, 02:45:06,VALID,917.259,VALID,0.0,VALID,96.877,VALID,-0.049,VALID,18.058,INVALID,360.0,VALID,0.0,
2019-07-03, 02:46:06,VALID,917.274,VALID,0.0,VALID,97.186,VALID,-0.033,VALID,18.117,INVALID,360.0,VALID,0.0,
2019-07-03, 02:47:06,VALID,917.269,VALID,0.0,VALID,97.49,VALID,-0.031,VALID,18.17,INVALID,360.0,VALID,0.0,
2019-07-03, 02:48:06,VALID,917.28,VALID,0.0,VALID,97.676,VALID,-0.025,VALID,18.209,INVALID,360.0,VALID,0.0,
2019-07-03, 02:49:06,VALID,917.264,VALID,0.0,VALID,97.99,VALID,-0.019,VALID,18.259,INVALID,360.0,VALID,0.0,
2019-07-03, 02:50:06,VALID,917.267,VALID,0.0,VALID,98.191,VALID,-0.03,VALID,18.31,INVALID,360.0,VALID,0.0,
2019-07-03, 02:51:06,VALID,917.278,VALID,0.0,VALID,98.477,VALID,-0.016,VALID,18.395,INVALID,360.0,VALID,0.0,
2019-07-03, 02:52:06,VALID,917.244,VALID,0.0,VALID,98.447,VALID,-0.006,VALID,18.37,INVALID,360.0,VALID,0.0,
2019-07-03, 02:53:06,VALID,917.236,VALID,0.0,VALID,98.438,VALID,0.003,VALID,18.333,INVALID,360.0,VALID,0.0,
2019-07-03, 02:54:06,VALID,917.218,VALID,0.0,VALID,98.403,VALID,0.006,VALID,18.293,INVALID,360.0,VALID,0.0,
2019-07-03, 02:55:06,VALID,917.199,VALID,0.0,VALID,98.463,VALID,0.001,VALID,18.311,INVALID,360.0,VALID,0.0,
2019-07-03, 02:56:06,VALID,917.193,VALID,0.0,VALID,98.535,VALID,-0.009,VALID,18.341,INVALID,360.0,VALID,0.0,
2019-07-03, 02:57:06,VALID,917.151,VALID,0.0,VALID,98.653,VALID,-0.012,VALID,18.405,INVALID,360.0,VALID,0.0,
2019-07-03, 02:58:06,VALID,917.137,VALID,0.0,VALID,98.698,VALID,0.002,VALID,18.438,INVALID,360.0,VALID,0.0,
2019-07-03, 02:59:06,VALID,917.117,VALID,0.0,VALID,98.651,VALID,0.009,VALID,18.425,INVALID,360.0,VALID,0.0,
2019-07-03, 03:00:06,VALID,917.112,VALID,0.0,VALID,98.501,VALID,0.006,VALID,18.398,INVALID,360.0,VALID,0.0,
2019-07-03, 03:01:06,VALID,917.109,VALID,0.0,VALID,98.473,VALID,-0.008,VALID,18.435,INVALID,360.0,VALID,0.0,
2019-07-03, 03:02:06,VALID,917.076,VALID,0.0,VALID,98.402,VALID,-0.011,VALID,18.465,INVALID,360.0,VALID,0.0,
2019-07-03, 03:03:06,VALID,917.06,VALID,0.0,VALID,98.28,VALID,-0.003,VALID,18.463,INVALID,360.0,VALID,0.0,
2019-07-03, 03:04:06,VALID,917.023,VALID,0.0,VALID,98.356,VALID,0.01,VALID,18.509,INVALID,360.0,VALID,0.0,
2019-07-03, 03:05:06,VALID,916.999,VALID,0.0,VALID,98.454,VALID,0.008,VALID,18.524,INVALID,360.0,VALID,0.0,
2019-07-03, 03:06:06,VALID,916.968,VALID,0.0,VALID,98.361,VALID,0.001,VALID,18.484,INVALID,360.0,VALID,0.0,
2019-07-03, 03:07:06,VALID,916.959,VALID,0.0,VALID,98.323,VALID,0.009,VALID,18.465,INVALID,360.0,VALID,0.0,
2019-07-03, 03:08:06,VALID,916.96,VALID,0.0,VALID,98.205,VALID,0.007,VALID,18.439,INVALID,360.0,VALID,0.0,
2019-07-03, 03:09:06,VALID,916.945,VALID,0.0,VALID,98.229,VALID,0.006,VALID,18.415,INVALID,360.0,VALID,0.0,
2019-07-03, 03:10:06,VALID,916.941,VALID,0.0,VALID,98.279,VALID,-0.002,VALID,18.376,INVALID,360.0,VALID,0.0,
2019-07-03, 03:11:06,VALID,916.956,VALID,0.0,VALID,98.425,VALID,0.001,VALID,18.379,INVALID,360.0,VALID,0.0,
2019-07-03, 03:12:06,VALID,916.922,VALID,0.0,VALID,98.502,VALID,0.01,VALID,18.33,INVALID,360.0,VALID,0.0,
2019-07-03, 03:13:06,VALID,916.923,VALID,0.0,VALID,98.49,VALID,-0.006,VALID,18.31,INVALID,360.0,VALID,0.0,
2019-07-03, 03:14:06,VALID,916.932,VALID,0.0,VALID,98.611,VALID,-0.035,VALID,18.368,INVALID,360.0,VALID,0.0,
2019-07-03, 03:15:06,VALID,916.963,VALID,0.0,VALID,98.682,VALID,0.0,VALID,18.427,INVALID,360.0,VALID,0.0,
2019-07-03, 03:16:06,VALID,916.953,VALID,0.0,VALID,98.673,VALID,0.0,VALID,18.441,INVALID,360.0,VALID,0.0,
2019-07-03, 03:17:06,VALID,916.964,VALID,0.0,VALID,98.549,VALID,-0.004,VALID,18.428,INVALID,360.0,VALID,0.0,
2019-07-03, 03:18:06,VALID,916.942,VALID,0.0,VALID,98.49,VALID,-0.0,VALID,18.44,INVALID,360.0,VALID,0.0,
2019-07-03, 03:19:06,VALID,916.936,VALID,0.0,VALID,98.373,VALID,0.013,VALID,18.433,INVALID,360.0,VALID,0.0,
2019-07-03, 03:20:06,VALID,916.926,VALID,0.0,VALID,98.216,VALID,0.017,VALID,18.432,INVALID,360.0,VALID,0.0,
2019-07-03, 03:21:06,VALID,916.918,VALID,0.0,VALID,98.137,VALID,0.006,VALID,18.457,INVALID,360.0,VALID,0.0,
2019-07-03, 03:22:06,VALID,916.909,VALID,0.0,VALID,97.938,VALID,-0.002,VALID,18.453,INVALID,360.0,VALID,0.0,
2019-07-03, 03:23:06,VALID,916.895,VALID,0.0,VALID,97.765,VALID,0.009,VALID,18.458,INVALID,360.0,VALID,0.0,
2019-07-03, 03:24:06,VALID,916.899,VALID,0.0,VALID,97.793,VALID,0.016,VALID,18.502,INVALID,360.0,VALID,0.0,
2019-07-03, 03:25:06,VALID,916.908,VALID,0.0,VALID,97.674,VALID,0.003,VALID,18.514,INVALID,360.0,VALID,0.0,
2019-07-03, 03:26:06,VALID,916.903,VALID,0.0,VALID,97.491,VALID,0.002,VALID,18.486,INVALID,360.0,VALID,0.0,
2019-07-03, 03:27:06,VALID,916.91,VALID,0.0,VALID,97.423,VALID,0.01,VALID,18.482,INVALID,360.0,VALID,0.0,
2019-07-03, 03:28:06,VALID,916.906,VALID,0.0,VALID,97.279,VALID,0.017,VALID,18.456,INVALID,360.0,VALID,0.0,
2019-07-03, 03:29:06,VALID,916.914,VALID,0.0,VALID,97.053,VALID,0.011,VALID,18.414,INVALID,360.0,VALID,0.0,
2019-07-03, 03:30:06,VALID,916.899,VALID,0.0,VALID,96.932,VALID,-0.002,VALID,18.398,INVALID,360.0,VALID,0.0,
2019-07-03, 03:31:06,VALID,916.882,VALID,0.0,VALID,96.954,VALID,-0.006,VALID,18.398,INVALID,360.0,VALID,0.0,
2019-07-03, 03:32:06,VALID,916.88,VALID,0.0,VALID,96.686,VALID,0.011,VALID,18.387,INVALID,360.0,VALID,0.0,
2019-07-03, 03:33:06,VALID,916.866,VALID,0.0,VALID,96.924,VALID,0.046,VALID,18.468,INVALID,360.0,VALID,0.0,
2019-07-03, 03:34:06,VALID,916.902,VALID,0.0,VALID,97.209,VALID,0.038,VALID,18.589,INVALID,360.0,VALID,0.0,
2019-07-03, 03:35:06,VALID,916.897,VALID,0.0,VALID,97.119,VALID,0.038,VALID,18.691,INVALID,360.0,VALID,0.0,
2019-07-03, 03:36:06,VALID,916.905,VALID,0.0,VALID,96.829,VALID,0.045,VALID,18.749,INVALID,360.0,VALID,0.0,
2019-07-03, 03:37:06,VALID,916.875,VALID,0.0,VALID,96.583,VALID,0.056,VALID,18.787,INVALID,360.0,VALID,0.0,
2019-07-03, 03:38:06,VALID,916.871,VALID,0.0,VALID,96.084,VALID,0.047,VALID,18.788,INVALID,360.0,VALID,0.0,
2019-07-03, 03:39:06,VALID,916.867,VALID,0.0,VALID,95.848,VALID,0.055,VALID,18.795,INVALID,360.0,VALID,0.0,
2019-07-03, 03:40:06,VALID,916.853,VALID,0.0,VALID,95.612,VALID,0.05,VALID,18.772,VALID,64.0,VALID,0.0,